Time,TemperatureF,DewpointF,PressureIn,WindDirection,WindDirectionDegrees,WindSpeedMPH,WindSpeedGustMPH,Humidity,HourlyPrecipIn,Conditions,Clouds,dailyrainin,SolarRadiationWatts/m^2,SoftwareType,DateUTC
2013-03-26 00:02:00,15.0,-4.0,-100.00,East,93,2.0,3.0,41,0.00,,,0.00,0.000000,,2013-03-26 06:02:00,
2013-03-26 00:12:00,15.0,-4.0,-100.00,East,93,2.0,3.0,41,0.00,,,0.00,0.000000,,2013-03-26 06:12:00,
2013-03-26 00:22:00,13.0,-4.0,-100.00,ESE,112,2.0,3.0,45,0.00,,,0.00,0.000000,,2013-03-26 06:22:00,
2013-03-26 00:43:00,13.0,-4.0,-100.00,ESE,112,2.0,3.0,45,0.00,,,0.00,0.000000,,2013-03-26 06:43:00,
2013-03-26 00:52:00,13.0,-4.0,-100.00,ESE,112,2.0,3.0,45,0.00,,,0.00,0.000000,,2013-03-26 06:52:00,
2013-03-26 01:02:00,13.0,-4.0,-100.00,ESE,112,2.0,3.0,45,0.00,,,0.00,0.000000,,2013-03-26 07:02:00,
2013-03-26 01:12:00,13.0,-4.0,-100.00,ESE,112,2.0,3.0,45,0.00,,,0.00,0.000000,,2013-03-26 07:12:00,
2013-03-26 01:22:00,13.0,-5.0,-100.00,ESE,103,2.0,2.0,44,0.00,,,0.00,0.000000,,2013-03-26 07:22:00,
2013-03-26 01:43:00,13.0,-5.0,-100.00,ESE,103,2.0,2.0,44,0.00,,,0.00,0.000000,,2013-03-26 07:43:00,
2013-03-26 01:53:00,13.0,-5.0,-100.00,ESE,103,2.0,2.0,44,0.00,,,0.00,0.000000,,2013-03-26 07:53:00,
2013-03-26 02:02:00,13.0,-5.0,-100.00,ESE,103,2.0,2.0,44,0.00,,,0.00,0.000000,,2013-03-26 08:02:00,
2013-03-26 02:12:00,13.0,-5.0,-100.00,ESE,103,2.0,2.0,44,0.00,,,0.00,0.000000,,2013-03-26 08:12:00,
2013-03-26 02:22:00,13.0,-5.0,-100.00,ESE,107,1.0,2.0,44,0.00,,,0.00,0.000000,,2013-03-26 08:22:00,
2013-03-26 02:42:00,13.0,-5.0,-100.00,ESE,107,1.0,2.0,44,0.00,,,0.00,0.000000,,2013-03-26 08:42:00,
2013-03-26 02:52:00,13.0,-5.0,-100.00,ESE,107,1.0,2.0,44,0.00,,,0.00,0.000000,,2013-03-26 08:52:00,
2013-03-26 03:02:00,13.0,-5.0,-100.00,ESE,107,1.0,2.0,44,0.00,,,0.00,0.000000,,2013-03-26 09:02:00,
2013-03-26 03:12:00,13.0,-5.0,-100.00,ESE,107,1.0,2.0,44,0.00,,,0.00,0.000000,,2013-03-26 09:12:00,
2013-03-26 03:22:00,10.0,-4.0,-100.00,ENE,60,2.0,3.0,52,0.00,,,0.00,0.000000,,2013-03-26 09:22:00,
2013-03-26 03:43:00,10.0,-4.0,-100.00,ENE,60,2.0,3.0,52,0.00,,,0.00,0.000000,,2013-03-26 09:43:00,
2013-03-26 03:52:00,10.0,-4.0,-100.00,ENE,60,2.0,3.0,52,0.00,,,0.00,0.000000,,2013-03-26 09:52:00,
2013-03-26 04:03:00,10.0,-4.0,-100.00,ENE,60,2.0,3.0,52,0.00,,,0.00,0.000000,,2013-03-26 10:03:00,
2013-03-26 04:12:00,10.0,-4.0,-100.00,ENE,60,2.0,3.0,52,0.00,,,0.00,0.000000,,2013-03-26 10:12:00,
2013-03-26 04:22:00,13.0,-2.0,-100.00,NE,56,1.0,3.0,50,0.00,,,0.00,0.000000,,2013-03-26 10:22:00,
2013-03-26 04:43:00,13.0,-2.0,-100.00,NE,56,1.0,3.0,50,0.00,,,0.00,0.000000,,2013-03-26 10:43:00,
2013-03-26 04:53:00,13.0,-2.0,-100.00,NE,56,1.0,3.0,50,0.00,,,0.00,0.000000,,2013-03-26 10:53:00,
2013-03-26 05:03:00,13.0,-2.0,-100.00,NE,56,1.0,3.0,50,0.00,,,0.00,0.000000,,2013-03-26 11:03:00,
2013-03-26 05:12:00,13.0,-2.0,-100.00,NE,56,1.0,3.0,50,0.00,,,0.00,0.000000,,2013-03-26 11:12:00,
2013-03-26 05:22:00,14.0,0.0,-100.00,SSE,148,2.0,2.0,54,0.00,,,0.00,0.000000,,2013-03-26 11:22:00,
2013-03-26 05:43:00,14.0,0.0,-100.00,SSE,148,2.0,2.0,54,0.00,,,0.00,0.000000,,2013-03-26 11:43:00,
2013-03-26 05:52:00,14.0,0.0,-100.00,SSE,148,2.0,2.0,54,0.00,,,0.00,0.000000,,2013-03-26 11:52:00,
2013-03-26 06:03:00,14.0,0.0,-100.00,SSE,148,2.0,2.0,54,0.00,,,0.00,0.000000,,2013-03-26 12:03:00,
2013-03-26 06:12:00,14.0,0.0,-100.00,SSE,148,2.0,2.0,54,0.00,,,0.00,0.000000,,2013-03-26 12:12:00,
2013-03-26 06:22:00,13.0,0.0,-100.00,NE,40,1.0,2.0,56,0.00,,,0.00,0.000000,,2013-03-26 12:22:00,
2013-03-26 06:43:00,13.0,0.0,-100.00,NE,40,1.0,2.0,56,0.00,,,0.00,0.000000,,2013-03-26 12:43:00,
2013-03-26 06:52:00,13.0,0.0,-100.00,NE,40,1.0,2.0,56,0.00,,,0.00,0.000000,,2013-03-26 12:52:00,
2013-03-26 07:03:00,13.0,0.0,-100.00,NE,40,1.0,2.0,56,0.00,,,0.00,0.000000,,2013-03-26 13:03:00,
2013-03-26 07:12:00,13.0,0.0,-100.00,NE,40,1.0,2.0,56,0.00,,,0.00,0.000000,,2013-03-26 13:12:00,
2013-03-26 07:22:00,14.0,-2.0,-100.00,ESE,108,0.0,2.0,49,0.00,,,0.00,4.000000,,2013-03-26 13:22:00,
2013-03-26 07:42:00,14.0,-2.0,-100.00,ESE,108,0.0,2.0,49,0.00,,,0.00,4.000000,,2013-03-26 13:42:00,
2013-03-26 07:52:00,14.0,-2.0,-100.00,ESE,108,0.0,2.0,49,0.00,,,0.00,4.000000,,2013-03-26 13:52:00,
2013-03-26 08:02:00,14.0,-2.0,-100.00,ESE,108,0.0,2.0,49,0.00,,,0.00,4.000000,,2013-03-26 14:02:00,
2013-03-26 08:11:00,14.0,-2.0,-100.00,ESE,108,0.0,2.0,49,0.00,,,0.00,4.000000,,2013-03-26 14:11:00,
2013-03-26 08:22:00,24.0,2.0,-100.00,WNW,292,0.0,2.0,38,0.00,,,0.00,154.000000,,2013-03-26 14:22:00,
2013-03-26 08:42:00,24.0,2.0,-100.00,WNW,292,0.0,2.0,38,0.00,,,0.00,154.000000,,2013-03-26 14:42:00,
2013-03-26 08:53:00,24.0,2.0,-100.00,WNW,292,0.0,2.0,38,0.00,,,0.00,154.000000,,2013-03-26 14:53:00,
2013-03-26 09:02:00,24.0,2.0,-100.00,WNW,292,0.0,2.0,38,0.00,,,0.00,154.000000,,2013-03-26 15:02:00,
2013-03-26 09:12:00,24.0,2.0,-100.00,WNW,292,0.0,2.0,38,0.00,,,0.00,154.000000,,2013-03-26 15:12:00,
2013-03-26 09:22:00,27.0,3.0,-100.00,NE,34,2.0,3.0,35,0.00,,,0.00,414.000000,,2013-03-26 15:22:00,
2013-03-26 09:43:00,27.0,3.0,-100.00,NE,34,2.0,3.0,35,0.00,,,0.00,414.000000,,2013-03-26 15:43:00,
2013-03-26 09:53:00,27.0,3.0,-100.00,NE,34,2.0,3.0,35,0.00,,,0.00,414.000000,,2013-03-26 15:53:00,
2013-03-26 10:03:00,27.0,3.0,-100.00,NE,34,2.0,3.0,35,0.00,,,0.00,414.000000,,2013-03-26 16:03:00,
2013-03-26 10:12:00,27.0,3.0,-100.00,NE,34,2.0,3.0,35,0.00,,,0.00,414.000000,,2013-03-26 16:12:00,
2013-03-26 10:22:00,32.0,3.0,-100.00,West,281,2.0,2.0,29,0.00,,,0.00,663.000000,,2013-03-26 16:22:00,
2013-03-26 10:42:00,32.0,3.0,-100.00,West,281,2.0,2.0,29,0.00,,,0.00,663.000000,,2013-03-26 16:42:00,
2013-03-26 10:53:00,32.0,3.0,-100.00,West,281,2.0,2.0,29,0.00,,,0.00,663.000000,,2013-03-26 16:53:00,
2013-03-26 11:02:00,32.0,3.0,-100.00,West,281,2.0,2.0,29,0.00,,,0.00,663.000000,,2013-03-26 17:02:00,
2013-03-26 11:12:00,32.0,3.0,-100.00,West,281,2.0,2.0,29,0.00,,,0.00,663.000000,,2013-03-26 17:12:00,
2013-03-26 11:22:00,35.0,4.0,-100.00,West,261,1.0,2.0,26,0.00,,,0.00,855.000000,,2013-03-26 17:22:00,
2013-03-26 11:42:00,35.0,4.0,-100.00,West,261,1.0,2.0,26,0.00,,,0.00,855.000000,,2013-03-26 17:42:00,
2013-03-26 11:53:00,35.0,4.0,-100.00,West,261,1.0,2.0,26,0.00,,,0.00,855.000000,,2013-03-26 17:53:00,
2013-03-26 12:02:00,35.0,4.0,-100.00,West,261,1.0,2.0,26,0.00,,,0.00,855.000000,,2013-03-26 18:02:00,
2013-03-26 12:12:00,35.0,4.0,-100.00,West,261,1.0,2.0,26,0.00,,,0.00,855.000000,,2013-03-26 18:12:00,
2013-03-26 12:22:00,40.0,15.0,-100.00,NE,55,2.0,2.0,36,0.00,,,0.00,997.000000,,2013-03-26 18:22:00,
2013-03-26 12:42:00,40.0,15.0,-100.00,NE,55,2.0,2.0,36,0.00,,,0.00,997.000000,,2013-03-26 18:42:00,
2013-03-26 12:53:00,40.0,15.0,-100.00,NE,55,2.0,2.0,36,0.00,,,0.00,997.000000,,2013-03-26 18:53:00,
2013-03-26 13:03:00,40.0,15.0,-100.00,NE,55,2.0,2.0,36,0.00,,,0.00,997.000000,,2013-03-26 19:03:00,
2013-03-26 13:12:00,40.0,15.0,-100.00,NE,55,2.0,2.0,36,0.00,,,0.00,997.000000,,2013-03-26 19:12:00,
2013-03-26 13:22:00,42.0,13.0,-100.00,North,359,3.0,4.0,30,0.00,,,0.00,997.000000,,2013-03-26 19:22:00,
2013-03-26 13:42:00,42.0,13.0,-100.00,North,359,3.0,4.0,30,0.00,,,0.00,997.000000,,2013-03-26 19:42:00,
2013-03-26 13:53:00,42.0,13.0,-100.00,North,359,3.0,4.0,30,0.00,,,0.00,997.000000,,2013-03-26 19:53:00,
2013-03-26 14:02:00,42.0,13.0,-100.00,North,359,3.0,4.0,30,0.00,,,0.00,997.000000,,2013-03-26 20:02:00,
2013-03-26 14:13:00,42.0,13.0,-100.00,North,359,3.0,4.0,30,0.00,,,0.00,997.000000,,2013-03-26 20:13:00,
2013-03-26 14:22:00,46.0,13.0,-100.00,NW,312,2.0,4.0,26,0.00,,,0.00,811.000000,,2013-03-26 20:22:00,
2013-03-26 14:43:00,46.0,13.0,-100.00,NW,312,2.0,4.0,26,0.00,,,0.00,811.000000,,2013-03-26 20:43:00,
2013-03-26 14:52:00,46.0,13.0,-100.00,NW,312,2.0,4.0,26,0.00,,,0.00,811.000000,,2013-03-26 20:52:00,
2013-03-26 15:02:00,46.0,13.0,-100.00,NW,312,2.0,4.0,26,0.00,,,0.00,811.000000,,2013-03-26 21:02:00,
2013-03-26 15:12:00,46.0,13.0,-100.00,NW,312,2.0,4.0,26,0.00,,,0.00,811.000000,,2013-03-26 21:12:00,
2013-03-26 15:22:00,43.0,15.0,-100.00,WNW,298,2.0,4.0,32,0.00,,,0.00,889.000000,,2013-03-26 21:22:00,
2013-03-26 15:43:00,43.0,15.0,-100.00,WNW,298,2.0,4.0,32,0.00,,,0.00,889.000000,,2013-03-26 21:43:00,
2013-03-26 15:52:00,43.0,15.0,-100.00,WNW,298,2.0,4.0,32,0.00,,,0.00,889.000000,,2013-03-26 21:52:00,
2013-03-26 16:02:00,43.0,15.0,-100.00,WNW,298,2.0,4.0,32,0.00,,,0.00,889.000000,,2013-03-26 22:02:00,
2013-03-26 16:12:00,43.0,15.0,-100.00,WNW,298,2.0,4.0,32,0.00,,,0.00,889.000000,,2013-03-26 22:12:00,
2013-03-26 16:22:00,40.0,16.0,-100.00,West,267,4.0,7.0,38,0.00,,,0.00,521.000000,,2013-03-26 22:22:00,
2013-03-26 16:42:00,40.0,16.0,-100.00,West,267,4.0,7.0,38,0.00,,,0.00,521.000000,,2013-03-26 22:42:00,
2013-03-26 16:52:00,40.0,16.0,-100.00,West,267,4.0,7.0,38,0.00,,,0.00,521.000000,,2013-03-26 22:52:00,
2013-03-26 17:01:00,40.0,16.0,-100.00,West,267,4.0,7.0,38,0.00,,,0.00,521.000000,,2013-03-26 23:01:00,
2013-03-26 17:10:00,40.0,16.0,-100.00,West,267,4.0,7.0,38,0.00,,,0.00,521.000000,,2013-03-26 23:10:00,
2013-03-26 17:22:00,40.0,13.0,-100.00,WSW,257,10.0,18.0,33,0.00,,,0.00,398.000000,,2013-03-26 23:22:00,
2013-03-26 17:43:00,40.0,13.0,-100.00,WSW,257,10.0,18.0,33,0.00,,,0.00,398.000000,,2013-03-26 23:43:00,
2013-03-26 17:53:00,40.0,13.0,-100.00,WSW,257,10.0,18.0,33,0.00,,,0.00,398.000000,,2013-03-26 23:53:00,
2013-03-26 18:02:00,40.0,13.0,-100.00,WSW,257,10.0,18.0,33,0.00,,,0.00,398.000000,,2013-03-27 00:02:00,
2013-03-26 18:12:00,40.0,13.0,-100.00,WSW,257,10.0,18.0,33,0.00,,,0.00,398.000000,,2013-03-27 00:12:00,
2013-03-26 18:22:00,37.0,18.0,-100.00,WSW,251,8.0,13.0,45,0.00,,,0.00,223.000000,,2013-03-27 00:22:00,
2013-03-26 18:42:00,37.0,18.0,-100.00,WSW,251,8.0,13.0,45,0.00,,,0.00,223.000000,,2013-03-27 00:42:00,
2013-03-26 18:52:00,37.0,18.0,-100.00,WSW,251,8.0,13.0,45,0.00,,,0.00,223.000000,,2013-03-27 00:52:00,
2013-03-26 19:02:00,37.0,18.0,-100.00,WSW,251,8.0,13.0,45,0.00,,,0.00,223.000000,,2013-03-27 01:02:00,
2013-03-26 19:12:00,37.0,18.0,-100.00,WSW,251,8.0,13.0,45,0.00,,,0.00,223.000000,,2013-03-27 01:12:00,
2013-03-26 19:22:00,38.0,14.0,-100.00,WSW,245,6.0,9.0,37,0.00,,,0.00,45.000000,,2013-03-27 01:22:00,
2013-03-26 19:43:00,38.0,14.0,-100.00,WSW,245,6.0,9.0,37,0.00,,,0.00,45.000000,,2013-03-27 01:43:00,
2013-03-26 19:53:00,38.0,14.0,-100.00,WSW,245,6.0,9.0,37,0.00,,,0.00,45.000000,,2013-03-27 01:53:00,
2013-03-26 20:03:00,38.0,14.0,-100.00,WSW,245,6.0,9.0,37,0.00,,,0.00,45.000000,,2013-03-27 02:03:00,
2013-03-26 20:12:00,38.0,14.0,-100.00,WSW,245,6.0,9.0,37,0.00,,,0.00,45.000000,,2013-03-27 02:12:00,
2013-03-26 20:22:00,37.0,11.0,-100.00,WSW,245,6.0,9.0,34,0.00,,,0.00,1.000000,,2013-03-27 02:22:00,
2013-03-26 20:42:00,37.0,11.0,-100.00,WSW,245,6.0,9.0,34,0.00,,,0.00,1.000000,,2013-03-27 02:42:00,
2013-03-26 20:53:00,37.0,11.0,-100.00,WSW,245,6.0,9.0,34,0.00,,,0.00,1.000000,,2013-03-27 02:53:00,
2013-03-26 21:02:00,37.0,11.0,-100.00,WSW,245,6.0,9.0,34,0.00,,,0.00,1.000000,,2013-03-27 03:02:00,
2013-03-26 21:12:00,37.0,11.0,-100.00,WSW,245,6.0,9.0,34,0.00,,,0.00,1.000000,,2013-03-27 03:12:00,
2013-03-26 21:22:00,34.0,14.0,-100.00,NW,312,2.0,9.0,44,0.00,,,0.00,0.000000,,2013-03-27 03:22:00,
2013-03-26 21:43:00,34.0,14.0,-100.00,NW,312,2.0,9.0,44,0.00,,,0.00,0.000000,,2013-03-27 03:43:00,
2013-03-26 21:53:00,34.0,14.0,-100.00,NW,312,2.0,9.0,44,0.00,,,0.00,0.000000,,2013-03-27 03:53:00,
2013-03-26 22:02:00,34.0,14.0,-100.00,NW,312,2.0,9.0,44,0.00,,,0.00,0.000000,,2013-03-27 04:02:00,
2013-03-26 22:13:00,34.0,14.0,-100.00,NW,312,2.0,9.0,44,0.00,,,0.00,0.000000,,2013-03-27 04:13:00,
2013-03-26 22:22:00,33.0,13.0,-100.00,SE,128,1.0,2.0,44,0.00,,,0.00,0.000000,,2013-03-27 04:22:00,
2013-03-26 22:43:00,33.0,13.0,-100.00,SE,128,1.0,2.0,44,0.00,,,0.00,0.000000,,2013-03-27 04:43:00,
2013-03-26 22:52:00,33.0,13.0,-100.00,SE,128,1.0,2.0,44,0.00,,,0.00,0.000000,,2013-03-27 04:52:00,
2013-03-26 23:02:00,33.0,13.0,-100.00,SE,128,1.0,2.0,44,0.00,,,0.00,0.000000,,2013-03-27 05:02:00,
2013-03-26 23:12:00,33.0,13.0,-100.00,SE,128,1.0,2.0,44,0.00,,,0.00,0.000000,,2013-03-27 05:12:00,
2013-03-26 23:22:00,33.0,9.0,-100.00,WSW,247,2.0,3.0,36,0.00,,,0.00,0.000000,,2013-03-27 05:22:00,
2013-03-26 23:42:00,33.0,9.0,-100.00,WSW,247,2.0,3.0,36,0.00,,,0.00,0.000000,,2013-03-27 05:42:00,
2013-03-26 23:52:00,33.0,9.0,-100.00,WSW,247,2.0,3.0,36,0.00,,,0.00,0.000000,,2013-03-27 05:52:00,